Find Starlink 11172

NORAD ID: 60193 Int'l Des: 2024-124 Owner: SPXS Country: US Constellation: starlink operational
又名: STARLINK-11172 [DTC] celestrak
LEOCIRCULAR

当前视图

正在加载3D地球...

About Starlink 11172

Starlink 11172 (NORAD 60193) is a starlink constellation satellite (v2 mini d2c) launched Jul 3, 2024 by SPXS of US. It operates in LEO, CIRCULAR orbit with a mass of 960.00 kg.

即将过境

Passes for default location (London). Set your location on the main map for personalized predictions.

高度历史

Loading altitude history...

两行轨道根数

1 60193U 24124L 26234.80783398 -.00001291 00000-0 -58019-5 0 9998
2 60193 53.1585 62.4363 0000757 101.8616 258.2487 15.69706910122627
Epoch: Aug 22, 2026 • Age: 33 hours

当前状态

高度 359.7 km
远地点 / 近地点 N/A
速度 7.70 km/s
星下点 15.47°N, 171.03°W
发射日期 Jul 3, 2024
运行时间 2.1 years
类型 internet

技术详情

分类 Payload
质量 960.00 kg
干质量 910.00 kg
总质量 960.00 kg
长度 0.30 m
直径 4.10 m
跨度 29.00 m
形状 Box + pan
制造商 SPXS
平台类型 Starlink V2MD
阶段状态 In Orbit
所有者/国家 SPXS/US

Most Searched